Location: Unspecified
(0.0000°N, 0.0000°E)
Time: 03:19:51
(UTC+00:00)

Vanguard 1 - Pass Details

Date: 17 December 2017
Orbit: 650 x 3833 km, 34.2° (Epoch: 21 July)

Event Time Altitude Azimuth Distance (km) Brightness Sun altitude
Rises 17:30:32 0° 295° (WNW) 3,742 13.7 5.9°
Reaches altitude 10° 17:33:42 10° 288° (WNW) 2,480 13.0 5.2°
Maximum altitude 17:38:42 39° 219° (SW) 1,027 11.1 4.0°
Drops below altitude 10° 17:42:50 10° 148° (SSE) 2,044 11.7 3.1°
Sets 17:45:13 0° 140° (SE) 2,994 12.4 2.6°
